Regional Weather Roundup
Issued by NWS Charleston, SC

Current Version | Previous Version | Graphics & Text | Print | Product List | Glossary On
Versions: 1 2 3 4 5 6 7 8 9 10 11 12 13 14 15 16 17 18 19 20 21 22 23 24 25 26 27 28 29 30 31 32 33 34 35 36 37 38 39 40 41 42 43 44 45 46 47 48 49 50
000
ASUS42 KCHS 241113
RWRCHS

REGIONAL WEATHER ROUNDUP
NATIONAL WEATHER SERVICE CHARLESTON SC
700 AM EDT SUN JUL 24 2016

NOTE: "FAIR" INDICATES FEW OR NO CLOUDS BELOW 12,000 FEET WITH NO
SIGNIFICANT WEATHER AND/OR OBSTRUCTIONS TO VISIBILITY.

NOT ALL STATIONS ARE QUALITY CONTROLLED. USE DATA WITH CAUTION...
ESPECIALLY DEWPOINT OBSERVATIONS.

SCZ027-030-031-034>040-042>050-241200-
...SOUTHEAST SOUTH CAROLINA...

CITY           SKY/WX    TMP DP  RH WIND       PRES   REMARKS
N CHARLESTON   PTCLDY    79  75  87 SW6       30.02R
WATERFRONT PRK   N/A     81  78  91 CALM      30.00R
MOUNT PLEASANT FAIR      77  77 100 CALM      30.02S
JOHNS ISLAND   FAIR      79  77  94 CALM      30.02S
PINOPOLIS        N/A     79  75  89 SW8       29.94R
MONCKS CORNER  FAIR      73  72  94 CALM      30.02R
SUMMERVILLE    NOT AVBL
BEAUFORT MCAS  CLEAR     78  74  87 CALM      30.03R
BEAUFORT ARPT  FAIR      81  73  78 CALM      30.02R
HILTON HEAD IS CLEAR     79  75  89 SW6       30.03R
WALTERBORO     SUNNY     77  77 100 CALM      30.04R
ALLENDALE      FAIR      75  72  88 CALM      30.02R

...SOUTHERN MIDLANDS AND PEE DEE...

CITY           SKY/WX    TMP DP  RH WIND       PRES   REMARKS
GEORGETOWN     FAIR      75  73  94 CALM      30.02S
KINGSTREE      FAIR      72  70  94 CALM      30.01R
ORANGEBURG     CLEAR     74  72  93 CALM      30.02R
BARNWELL       NOT AVBL
AIKEN          FAIR      73  68  83 CALM      30.06R
MANNING        FAIR      77  72  83 SW3       30.02R
COLUMBIA       PTCLDY    75  71  87 SW5       30.01R
SUMTER         CLEAR     75  72  90 S3        29.99S FOG
FLORENCE       CLEAR     78  74  87 SW5       30.01R
MYRTLE BEACH   CLEAR     81  70  69 CALM      30.03R
N MYRTLE BEACH CLOUDY    82  76  81 S7        30.01R

$$

GAZ063-065-086>088-099>101-113>116-118-119-134>141-150-241200-
...SOUTHEAST GEORGIA...

CITY           SKY/WX    TMP DP  RH WIND       PRES   REMARKS
SAVANNAH ARPT  PTCLDY    77  72  84 SW5       30.03R
HUNTER AAF     CLEAR     77  77 100 S2        30.00R
FORT STEWART   CLEAR     74  72  92 CALM      30.01R
STATESBORO     CLEAR     74  74  98 CALM      30.03R
SYLVANIA       NOT AVBL
CLAXTON        FAIR      72  72 100 CALM      30.03R FOG

...CSRA...CENTRAL AND FAR SOUTHEAST GEORGIA...

CITY           SKY/WX    TMP DP  RH WIND       PRES   REMARKS
THOMSON        CLEAR     74  73  96 CALM      30.07R
AUGUSTA-BUSH   PTCLDY    71  70  96 CALM      30.01R
AUGUSTA-DANIEL CLEAR     78  68  71 SW3       30.03R
SWAINSBORO     FAIR      72  70  94 CALM      30.04R
VIDALIA        CLEAR     73  70  88 CALM      30.04R
EASTMAN        FAIR      73  73 100 CALM      30.05S FOG
HAZLEHURST     FAIR      75  75 100 CALM      30.02R
ALMA           CLEAR     71  71 100 CALM      30.03R FOG
WAYCROSS       CLEAR     75  75  99 CALM      30.03R
JESUP          FAIR      72  72 100 CALM      30.03S
BAXLEY         FAIR      73  73 100 CALM      30.03R FOG
BRUNSWICK      CLEAR     73  73 100 CALM      30.03S FOG
SAINT SIMONS   CLEAR     79  74  84 SW6       30.02R

$$

SCZ027-028-034-036>038-045-046-048>050-GAZ119-141-241200-
...LAKE AND SUPPLEMENTAL COASTAL OBSERVATIONS...

STATION/POSITION TIME  TEMP    WIND        PRES    WAVE   SWELL
                       AIR SEA DIR/SP/G            HT/PER HT/PER/DIR
                 (UTC) (F)     (DEG/KT/KT) (MB)    (FT/S) (FT/S/D)
WINYAH BAY       NOT AVBL
LAKE MURRAY      1000   80     290/  3/  4 1015.6R
ACE BASIN NERRS  NOT AVBL
FORT PULASKI     1000   80 88  230/  3/  4 1016.6R
SAPELO ISLAND    1000   80     190/  5     1016.0S

$$

ANZ835-935-AMZ111-154-330-350-352-354-370-450-454-472-241200-
...C-MAN AND BUOY OBSERVATIONS...

STATION/POSITION TIME  TEMP    WIND        PRES    WAVE   SWELL
                       AIR SEA DIR/SP/G            HT/PER HT/PER/DIR
                 (UTC) (F)     (DEG/KT/KT) (MB)    (FT/S) (FT/S/D)
BUOY 41004       1050   85 86  250/ 12/ 14 1016.2R   3/ 9   2/120/ 9
BUOY 41008       1050   85 86  190/ 10/ 12 1016.4R   3/ 8   2/ 80/ 8
FOLLY BEACH CMAN 1100   81     270/  2/  3 1016.8R
CAPERS NEARSHORE 1008   84 83  230/ 10/ 14 1016.1R
FRIPP NEARSHORE  1008   84 86  280/ 10/ 12 1015.8R


STATION/POSITION TIME  TEMP    WIND        PRES    WAVE   SWELL
                       AIR SEA DIR/SP/G            HT/PER HT/PER/DIR
                 (UTC) (F)     (DEG/KT/KT) (MB)    (FT/S) (FT/S/D)
5E ST. MARYS GA  1001      86                N/A     2/ 9
FRYING PAN BUOY  1000   82 85  250/  4/  6 1016.4R
BUOY 41025       1050   83 85  230/ 14/ 16 1016.1F   3/ 4   2/140/ 8
CAPE LOOKOUT NC  1100   83     240/  5/  7 1016.3R
BUOY 41002       1050   83 84   20/  2/  4 1017.8R   2/ 9   2/100/ 9
BUOY 41010       1020   84 87  340/  2/  2 1017.4R
ST AUGUSTINE FL  1100   76 85  210/  4/  5 1018.0R


$$




USA.gov is the U.S. government's official web portal to all federal, state and local government web resources and services.